Regional Weather Roundup
Issued by NWS

Home | Current Version | Previous Version | Text Only | Print | Product List | Glossary Off
Versions: 1 2 3 4 5 6 7 8 9 10 11 12 13 14 15 16 17 18 19 20 21 22 23 24 25 26 27 28 29 30 31 32 33 34 35 36 37 38 39 40 41 42 43 44 45 46 47 48 49 50

280
ASUS45 KTFX 310110
RWRMT
MONTANA REGIONAL WEATHER ROUNDUP
NATIONAL WEATHER SERVICE GREAT FALLS MT
700 PM MDT MON MAY 30 2016

NOTE: "FAIR" INDICATES FEW OR NO CLOUDS BELOW 12000 FEET WITH NO
SIGNIFICANT WEATHER AND/OR OBSTRUCTIONS TO VISIBILITY.

MTZ001>007-043-310200-
WEST OF THE DIVIDE

CITY           SKY/WX    TMP DP  RH WIND       PRES   REMARKS
KALISPELL      MOSUNNY   63  40  42 NW3       30.13R
MISSOULA       PTSUNNY   65  31  28 N13       30.12S
BUTTE          SUNNY     60  21  22 N12       30.15S
MULLAN PASS    SUNNY     53  25  33 VRB7      30.24R
ANACONDA         N/A     57  25  28 N9        30.14S
DEER LODGE       N/A     63  27  25 NW12G21   30.15S
EUREKA           N/A     63  37  39 N3        30.16S
HAMILTON         N/A     70  25  18 W12       30.11S
LIBBY            N/A     70  30  23 NW7       30.13S
$$

MTZ008-052>055-310200-
SOUTHWEST MONTANA

CITY           SKY/WX    TMP DP  RH WIND       PRES   REMARKS
BOZEMAN        SUNNY     63  33  32 N12       30.10R
DILLON         SUNNY     65  15  14 NW15      30.10S
W YELLOWSTONE  SUNNY     57  19  23 NW9G16    30.15R
ENNIS          MOSUNNY   61  23  23 N17       30.16S
$$

MTZ009-010-012-014-046-048-049-054-310200-
EAST SLOPES AND CENTRAL MONTANA

CITY           SKY/WX    TMP DP  RH WIND       PRES   REMARKS
CUT BANK       PTSUNNY   55  37  50 NW18G26   30.16R
GREAT FALLS    PTSUNNY   54  37  52 N14       30.15R
MALMSTROM AFB  CLOUDY    53  40  61 N13G22    30.15R
HELENA         SUNNY     61  36  39 N8        30.11S
CHOTEAU          N/A     55  37  50 N20G28    30.15F
$$

MTZ011-013-016-021-045-047-050-051-310200-
NORTH CENTRAL MONTANA

CITY           SKY/WX    TMP DP  RH WIND       PRES   REMARKS
HAVRE          CLOUDY    49  43  80 NW21G35   30.07S
LEWISTOWN      PTSUNNY   52  38  58 NW13      30.12R
N BAR RANCH    PTSUNNY   54  37  54 VRB6G16   30.10R
CHINOOK          N/A     52  41  66 W22G29    30.03F
$$

MTZ017>020-022>027-061-062-310200-
NORTHEAST MONTANA

CITY           SKY/WX    TMP DP  RH WIND       PRES   REMARKS
GLASGOW        MOSUNNY   54  42  64 W22       29.95F
JORDAN           N/A     55  41  59 NW15      30.01R
SIDNEY         CLOUDY    55  52  88 NW13      29.93R
WOLF POINT     CLOUDY    59  53  80 SW8       29.94S
POPLAR           N/A     55  50  82 N3        29.93S
$$

MTZ028>42-056>058-310200-
SOUTHCENTRAL AND SOUTHEAST MONTANA

CITY           SKY/WX    TMP DP  RH WIND       PRES   REMARKS
BAKER          CLOUDY    55  46  71 NW18G25   29.98R
BILLINGS       CLOUDY    62  38  40 N13       30.08R
LIVINGSTON     SUNNY     62  35  36 NW16      30.08S
MILES CITY     CLOUDY    61  38  42 NW26G33   30.00R
FORSYTH          N/A     59  36  41 W23G35    30.03S
$$

REGIONAL REPORTS...DAKOTAS

CITY           SKY/WX    TMP DP  RH WIND       PRES   REMARKS
WILLISTON      LGT RAIN  55  52  89 N8        29.92R FOG
MINOT          LGT RAIN  60  55  83 NE5       29.86R
DICKINSON      RAIN      52  50  93 W14       29.88R FOG
BEACH          PTSUNNY   52  52 100 NW16      29.99R
CROSBY         LGT RAIN  55  55 100 NW12      29.94R
WATFORD CITY   RAIN      54  54 100 N7        29.92R
BISMARCK       RAIN      58  56  93 N24G31    29.79F FOG
GRAND FORKS    LGT RAIN  64  53  67 NE13      29.81F
FARGO          CLOUDY    76  52  43 SE16G25   29.75F
BUFFALO SD       N/A     56  46  69 NW29G37   29.89R
RAPID CITY     CLOUDY    59  46  62 NW45G59   29.93R
$$

REGIONAL REPORTS...WYOMING/IDAHO/WASHINGTON

CITY           SKY/WX    TMP DP  RH WIND       PRES   REMARKS
GILLETTE       CLOUDY    49  45  86 N14       30.07R
SHERIDAN       CLOUDY    53  45  74 N9        30.09S
BUFFALO WY     CLOUDY    49  43  80 N15G26    30.10S
CODY           CLOUDY    54  39  58 N8        30.10S
YELLOWSTONE LA   N/A     52  19  27 NW10G16   30.20R
IDAHO FALLS    MOSUNNY   68  31  25 S17G26    30.05S
SALMON         SUNNY     70  27  19 N5        30.05S
BOISE          SUNNY     75  24  15 NW14      30.06F
SPOKANE        MOSUNNY   71  24  17 VRB7      30.16F
$$

REGIONAL REPORTS...ALBERTA

CITY           SKY/WX    TMP DP  RH WIND       PRES   REMARKS
EDMONTON       PTSUNNY   52  45  76 N9        30.19S
CALGARY        MOSUNNY   57  36  44 N21G28    30.17R
LETHBRIDGE     MOSUNNY   59  36  41 N15G23    30.14R
MEDICINE HAT   CLOUDY    52  45  76 NW17G35   30.07R
WATERTON GATE    N/A     50  41  71 SW2         N/A
MILK RIVER       N/A     54  45  71 N17G23      N/A
ONEFOUR          N/A     46  43  87 NW30G39     N/A
$$

REGIONAL REPORTS...SASKATCHEWAN

CITY           SKY/WX    TMP DP  RH WIND       PRES   REMARKS
SWIFT CURRENT  LGT RAIN  52  50  93 W8        29.93S
REGINA         LGT RAIN  55  54  94 NE8       29.92R
SASKATOON      CLOUDY    61  46  59 E13G20    29.99R
CYPRESS HILLS    N/A     43  41  93 NW12G31     N/A
VAL MARIE        N/A     54  43  66 NW22        N/A
ROCKGLEN         N/A     54  48  82 NW5         N/A
ASSINIBOIA       N/A     50  48  93 NW16G22     N/A
$$




USA.gov is the U.S. government's official web portal to all federal, state and local government web resources and services.